Time,TemperatureF,DewpointF,PressureIn,WindDirection,WindDirectionDegrees,WindSpeedMPH,WindSpeedGustMPH,Humidity,HourlyPrecipIn,Conditions,Clouds,dailyrainin,SoftwareType,DateUTC
2013-03-28 00:02:00,49.0,45.0,29.98,SSE,158,0.0,-999.0,86,-99.99,,,-99.99,,2013-03-28 07:02:00,
2013-03-28 00:12:00,49.0,45.0,29.98,SSE,158,0.0,-999.0,86,-99.99,,,-99.99,,2013-03-28 07:12:00,
2013-03-28 00:22:00,49.0,45.0,29.98,SSE,158,0.0,-999.0,86,-99.99,,,-99.99,,2013-03-28 07:22:00,
2013-03-28 00:32:00,48.0,44.0,29.98,SSE,157,0.0,-999.0,86,-99.99,,,-99.99,,2013-03-28 07:32:00,
2013-03-28 00:42:00,48.0,44.0,29.98,SSE,157,0.0,-999.0,86,-99.99,,,-99.99,,2013-03-28 07:42:00,
2013-03-28 00:52:00,48.0,44.0,29.98,SSE,158,0.0,-999.0,87,-99.99,,,-99.99,,2013-03-28 07:52:00,
2013-03-28 01:02:00,48.0,44.0,29.98,SSE,157,0.0,-999.0,87,-99.99,,,-99.99,,2013-03-28 08:02:00,
2013-03-28 01:11:00,48.0,44.0,29.98,SSE,157,0.0,-999.0,87,-99.99,,,-99.99,,2013-03-28 08:11:00,
2013-03-28 01:21:00,48.0,45.0,29.99,SSE,157,0.0,-999.0,88,-99.99,,,-99.99,,2013-03-28 08:21:00,
2013-03-28 01:32:00,47.0,44.0,29.99,SSE,157,0.0,-999.0,88,-99.99,,,-99.99,,2013-03-28 08:32:00,
2013-03-28 01:42:00,47.0,44.0,29.99,SSE,157,0.0,-999.0,88,-99.99,,,-99.99,,2013-03-28 08:42:00,
2013-03-28 01:52:00,47.0,44.0,29.99,SSE,157,0.0,-999.0,88,-99.99,,,-99.99,,2013-03-28 08:52:00,
2013-03-28 02:01:00,46.0,43.0,29.99,SSE,157,0.0,-999.0,88,-99.99,,,-99.99,,2013-03-28 09:01:00,
2013-03-28 02:11:00,46.0,43.0,29.99,SSE,157,0.0,-999.0,88,-99.99,,,-99.99,,2013-03-28 09:11:00,
2013-03-28 02:22:00,46.0,43.0,29.99,SSE,157,0.0,-999.0,89,-99.99,,,-99.99,,2013-03-28 09:22:00,
2013-03-28 02:32:00,46.0,43.0,30.00,SSE,157,0.0,-999.0,89,-99.99,,,-99.99,,2013-03-28 09:32:00,
2013-03-28 02:42:00,46.0,43.0,30.00,SSE,157,0.0,-999.0,89,-99.99,,,-99.99,,2013-03-28 09:42:00,
2013-03-28 02:52:00,46.0,43.0,30.00,SSE,157,0.0,-999.0,90,-99.99,,,-99.99,,2013-03-28 09:52:00,
2013-03-28 03:02:00,46.0,43.0,30.00,SSE,157,0.0,-999.0,90,-99.99,,,-99.99,,2013-03-28 10:02:00,
2013-03-28 03:12:00,46.0,43.0,30.00,SSE,157,0.0,-999.0,90,-99.99,,,-99.99,,2013-03-28 10:12:00,
2013-03-28 03:22:00,45.0,42.0,30.00,SSE,157,0.0,-999.0,89,-99.99,,,-99.99,,2013-03-28 10:22:00,
2013-03-28 03:32:00,45.0,42.0,30.01,SSE,158,0.0,-999.0,90,-99.99,,,-99.99,,2013-03-28 10:32:00,
2013-03-28 03:42:00,45.0,42.0,30.01,SSE,158,0.0,-999.0,90,-99.99,,,-99.99,,2013-03-28 10:42:00,
2013-03-28 03:52:00,45.0,42.0,30.01,SSE,158,0.0,-999.0,90,-99.99,,,-99.99,,2013-03-28 10:52:00,
2013-03-28 04:02:00,44.0,41.0,30.01,SSE,157,0.0,-999.0,90,-99.99,,,-99.99,,2013-03-28 11:02:00,
2013-03-28 04:12:00,44.0,41.0,30.01,SSE,157,0.0,-999.0,90,-99.99,,,-99.99,,2013-03-28 11:12:00,
2013-03-28 04:22:00,43.0,41.0,30.01,SSE,157,0.0,-999.0,91,-99.99,,,-99.99,,2013-03-28 11:22:00,
2013-03-28 04:32:00,43.0,41.0,30.01,SSE,157,0.0,-999.0,91,-99.99,,,-99.99,,2013-03-28 11:32:00,
2013-03-28 04:52:00,43.0,41.0,30.02,SSE,158,0.0,-999.0,91,-99.99,,,-99.99,,2013-03-28 11:52:00,
2013-03-28 05:02:00,42.0,40.0,30.02,SSE,157,0.0,-999.0,91,-99.99,,,-99.99,,2013-03-28 12:02:00,
2013-03-28 05:11:00,42.0,40.0,30.02,SSE,157,0.0,-999.0,91,-99.99,,,-99.99,,2013-03-28 12:11:00,
2013-03-28 05:22:00,42.0,40.0,30.03,SSE,157,0.0,-999.0,91,-99.99,,,-99.99,,2013-03-28 12:22:00,
2013-03-28 05:32:00,42.0,40.0,30.03,SSE,158,0.0,-999.0,91,-99.99,,,-99.99,,2013-03-28 12:32:00,
2013-03-28 05:42:00,42.0,40.0,30.03,SSE,158,0.0,-999.0,91,-99.99,,,-99.99,,2013-03-28 12:42:00,
2013-03-28 05:51:00,42.0,40.0,30.03,SSE,157,0.0,-999.0,92,-99.99,,,-99.99,,2013-03-28 12:51:00,
2013-03-28 06:02:00,42.0,40.0,30.04,SSE,158,0.0,-999.0,91,-99.99,,,-99.99,,2013-03-28 13:02:00,
2013-03-28 06:11:00,42.0,40.0,30.04,SSE,158,0.0,-999.0,91,-99.99,,,-99.99,,2013-03-28 13:11:00,
2013-03-28 06:21:00,42.0,40.0,30.04,SSE,157,0.0,-999.0,92,-99.99,,,-99.99,,2013-03-28 13:21:00,
2013-03-28 06:32:00,42.0,40.0,30.04,SSE,157,0.0,-999.0,92,-99.99,,,-99.99,,2013-03-28 13:32:00,
2013-03-28 06:41:00,42.0,40.0,30.04,SSE,157,0.0,-999.0,92,-99.99,,,-99.99,,2013-03-28 13:41:00,
2013-03-28 06:52:00,42.0,40.0,30.04,SSE,157,0.0,-999.0,92,-99.99,,,-99.99,,2013-03-28 13:52:00,
2013-03-28 07:02:00,41.0,39.0,30.05,SSE,157,1.0,-999.0,92,-99.99,,,-99.99,,2013-03-28 14:02:00,
2013-03-28 07:11:00,41.0,39.0,30.05,SSE,157,1.0,-999.0,92,-99.99,,,-99.99,,2013-03-28 14:11:00,
2013-03-28 07:22:00,42.0,40.0,30.05,SSE,157,0.0,-999.0,92,-99.99,,,-99.99,,2013-03-28 14:22:00,
2013-03-28 07:42:00,42.0,40.0,30.06,SSE,157,0.0,-999.0,92,-99.99,,,-99.99,,2013-03-28 14:42:00,
2013-03-28 07:51:00,42.0,40.0,30.06,SSE,157,0.0,-999.0,93,-99.99,,,-99.99,,2013-03-28 14:51:00,
2013-03-28 08:02:00,42.0,40.0,30.06,SSE,157,0.0,-999.0,92,-99.99,,,-99.99,,2013-03-28 15:02:00,
2013-03-28 08:11:00,42.0,40.0,30.06,SSE,157,0.0,-999.0,92,-99.99,,,-99.99,,2013-03-28 15:11:00,
2013-03-28 08:21:00,43.0,41.0,30.07,SSE,158,0.0,-999.0,93,-99.99,,,-99.99,,2013-03-28 15:21:00,
2013-03-28 08:32:00,43.0,41.0,30.06,SSE,157,0.0,-999.0,92,-99.99,,,-99.99,,2013-03-28 15:32:00,
2013-03-28 08:42:00,43.0,41.0,30.06,SSE,157,0.0,-999.0,92,-99.99,,,-99.99,,2013-03-28 15:42:00,
2013-03-28 08:52:00,43.0,41.0,30.06,SSE,157,0.0,-999.0,92,-99.99,,,-99.99,,2013-03-28 15:52:00,
2013-03-28 09:02:00,43.0,41.0,30.07,SSE,158,0.0,-999.0,91,-99.99,,,-99.99,,2013-03-28 16:02:00,
2013-03-28 09:12:00,43.0,41.0,30.07,SSE,158,0.0,-999.0,91,-99.99,,,-99.99,,2013-03-28 16:12:00,
2013-03-28 09:22:00,45.0,42.0,30.07,SSE,157,0.0,-999.0,89,-99.99,,,-99.99,,2013-03-28 16:22:00,
2013-03-28 09:32:00,46.0,42.0,30.07,SSE,157,0.0,-999.0,85,-99.99,,,-99.99,,2013-03-28 16:32:00,
2013-03-28 09:41:00,46.0,42.0,30.07,SSE,157,0.0,-999.0,85,-99.99,,,-99.99,,2013-03-28 16:41:00,
2013-03-28 09:52:00,47.0,42.0,30.07,SSE,158,1.0,-999.0,83,-99.99,,,-99.99,,2013-03-28 16:52:00,
2013-03-28 10:02:00,48.0,42.0,30.07,SSE,158,1.0,-999.0,79,-99.99,,,-99.99,,2013-03-28 17:02:00,
2013-03-28 10:12:00,48.0,42.0,30.07,SSE,158,1.0,-999.0,79,-99.99,,,-99.99,,2013-03-28 17:12:00,
2013-03-28 10:22:00,49.0,42.0,30.07,SSE,158,1.0,-999.0,78,-99.99,,,-99.99,,2013-03-28 17:22:00,
2013-03-28 10:32:00,50.0,42.0,30.07,SSE,158,1.0,-999.0,75,-99.99,,,-99.99,,2013-03-28 17:32:00,
2013-03-28 10:42:00,50.0,42.0,30.07,SSE,158,1.0,-999.0,75,-99.99,,,-99.99,,2013-03-28 17:42:00,
2013-03-28 10:52:00,51.0,43.0,30.06,SSE,157,1.0,-999.0,73,-99.99,,,-99.99,,2013-03-28 17:52:00,
2013-03-28 11:02:00,53.0,44.0,30.06,SSW,209,2.0,-999.0,71,-99.99,,,-99.99,,2013-03-28 18:02:00,
2013-03-28 11:12:00,53.0,44.0,30.06,SSW,209,2.0,-999.0,71,-99.99,,,-99.99,,2013-03-28 18:12:00,
2013-03-28 11:22:00,54.0,44.0,30.06,WSW,242,3.0,-999.0,69,-99.99,,,-99.99,,2013-03-28 18:22:00,
2013-03-28 11:32:00,55.0,44.0,30.06,WSW,252,1.0,-999.0,67,-99.99,,,-99.99,,2013-03-28 18:32:00,
2013-03-28 11:42:00,55.0,44.0,30.06,WSW,252,1.0,-999.0,67,-99.99,,,-99.99,,2013-03-28 18:42:00,
2013-03-28 11:52:00,56.0,45.0,30.05,WSW,254,2.0,-999.0,66,-99.99,,,-99.99,,2013-03-28 18:52:00,
2013-03-28 12:02:00,56.0,45.0,30.04,WSW,256,2.0,-999.0,66,-99.99,,,-99.99,,2013-03-28 19:02:00,
2013-03-28 12:11:00,56.0,45.0,30.04,WSW,256,2.0,-999.0,66,-99.99,,,-99.99,,2013-03-28 19:11:00,
2013-03-28 12:22:00,57.0,44.0,30.04,West,261,1.0,-999.0,62,-99.99,,,-99.99,,2013-03-28 19:22:00,
2013-03-28 12:32:00,57.0,45.0,30.04,West,261,2.0,-999.0,64,-99.99,,,-99.99,,2013-03-28 19:32:00,
2013-03-28 12:42:00,57.0,45.0,30.04,West,261,2.0,-999.0,64,-99.99,,,-99.99,,2013-03-28 19:42:00,
2013-03-28 12:52:00,57.0,45.0,30.03,West,261,2.0,-999.0,63,-99.99,,,-99.99,,2013-03-28 19:52:00,
2013-03-28 13:02:00,58.0,46.0,30.03,West,261,1.0,-999.0,64,-99.99,,,-99.99,,2013-03-28 20:02:00,
2013-03-28 13:11:00,58.0,46.0,30.03,West,261,1.0,-999.0,64,-99.99,,,-99.99,,2013-03-28 20:11:00,
2013-03-28 13:22:00,58.0,45.0,30.02,West,261,1.0,-999.0,61,-99.99,,,-99.99,,2013-03-28 20:22:00,
2013-03-28 13:32:00,59.0,45.0,30.02,West,261,1.0,-999.0,59,-99.99,,,-99.99,,2013-03-28 20:32:00,
2013-03-28 13:42:00,59.0,45.0,30.02,West,261,1.0,-999.0,59,-99.99,,,-99.99,,2013-03-28 20:42:00,
2013-03-28 13:52:00,60.0,45.0,30.02,West,261,1.0,-999.0,58,-99.99,,,-99.99,,2013-03-28 20:52:00,
2013-03-28 14:02:00,60.0,45.0,30.02,West,261,1.0,-999.0,58,-99.99,,,-99.99,,2013-03-28 21:02:00,
2013-03-28 14:11:00,60.0,45.0,30.02,West,261,1.0,-999.0,58,-99.99,,,-99.99,,2013-03-28 21:11:00,
2013-03-28 14:22:00,60.0,46.0,30.01,West,261,1.0,-999.0,59,-99.99,,,-99.99,,2013-03-28 21:22:00,
2013-03-28 14:32:00,62.0,45.0,30.01,West,261,1.0,-999.0,53,-99.99,,,-99.99,,2013-03-28 21:32:00,
2013-03-28 14:42:00,62.0,45.0,30.01,West,261,1.0,-999.0,53,-99.99,,,-99.99,,2013-03-28 21:42:00,
2013-03-28 14:52:00,63.0,43.0,30.01,West,261,2.0,-999.0,48,-99.99,,,-99.99,,2013-03-28 21:52:00,
2013-03-28 15:02:00,64.0,44.0,29.99,West,259,2.0,-999.0,49,-99.99,,,-99.99,,2013-03-28 22:02:00,
2013-03-28 15:12:00,64.0,44.0,29.99,West,259,2.0,-999.0,49,-99.99,,,-99.99,,2013-03-28 22:12:00,
2013-03-28 15:22:00,63.0,45.0,29.99,West,259,1.0,-999.0,52,-99.99,,,-99.99,,2013-03-28 22:22:00,
2013-03-28 15:32:00,63.0,44.0,29.99,West,259,2.0,-999.0,50,-99.99,,,-99.99,,2013-03-28 22:32:00,
2013-03-28 15:42:00,63.0,44.0,29.99,West,259,2.0,-999.0,50,-99.99,,,-99.99,,2013-03-28 22:42:00,
2013-03-28 15:52:00,64.0,45.0,29.98,West,259,1.0,-999.0,51,-99.99,,,-99.99,,2013-03-28 22:52:00,
2013-03-28 16:02:00,64.0,47.0,29.98,West,259,0.0,-999.0,53,-99.99,,,-99.99,,2013-03-28 23:02:00,
2013-03-28 16:12:00,64.0,47.0,29.98,West,259,0.0,-999.0,53,-99.99,,,-99.99,,2013-03-28 23:12:00,
2013-03-28 16:21:00,64.0,45.0,29.98,West,259,1.0,-999.0,51,-99.99,,,-99.99,,2013-03-28 23:21:00,
2013-03-28 16:32:00,64.0,45.0,29.99,West,259,2.0,-999.0,50,-99.99,,,-99.99,,2013-03-28 23:32:00,
2013-03-28 16:42:00,64.0,45.0,29.99,West,259,2.0,-999.0,50,-99.99,,,-99.99,,2013-03-28 23:42:00,
2013-03-28 16:52:00,65.0,45.0,29.99,West,259,2.0,-999.0,48,-99.99,,,-99.99,,2013-03-28 23:52:00,
2013-03-28 17:02:00,65.0,44.0,29.99,WSW,258,1.0,-999.0,47,-99.99,,,-99.99,,2013-03-29 00:02:00,
2013-03-28 17:11:00,65.0,44.0,29.99,WSW,258,1.0,-999.0,47,-99.99,,,-99.99,,2013-03-29 00:11:00,
2013-03-28 17:22:00,65.0,45.0,29.99,WSW,258,1.0,-999.0,48,-99.99,,,-99.99,,2013-03-29 00:22:00,
2013-03-28 17:32:00,65.0,45.0,29.99,WSW,258,1.0,-999.0,48,-99.99,,,-99.99,,2013-03-29 00:32:00,
2013-03-28 17:42:00,65.0,45.0,29.99,WSW,258,1.0,-999.0,48,-99.99,,,-99.99,,2013-03-29 00:42:00,
2013-03-28 17:52:00,65.0,46.0,29.99,WSW,258,0.0,-999.0,51,-99.99,,,-99.99,,2013-03-29 00:52:00,
2013-03-28 18:02:00,64.0,46.0,29.98,WSW,258,0.0,-999.0,52,-99.99,,,-99.99,,2013-03-29 01:02:00,
2013-03-28 18:11:00,64.0,46.0,29.98,WSW,258,0.0,-999.0,52,-99.99,,,-99.99,,2013-03-29 01:11:00,
2013-03-28 18:22:00,63.0,47.0,29.98,WSW,258,0.0,-999.0,55,-99.99,,,-99.99,,2013-03-29 01:22:00,
2013-03-28 18:32:00,62.0,47.0,29.99,WSW,258,0.0,-999.0,59,-99.99,,,-99.99,,2013-03-29 01:32:00,
2013-03-28 18:42:00,62.0,47.0,29.99,WSW,258,0.0,-999.0,59,-99.99,,,-99.99,,2013-03-29 01:42:00,
2013-03-28 18:52:00,62.0,48.0,29.99,WSW,258,0.0,-999.0,61,-99.99,,,-99.99,,2013-03-29 01:52:00,
2013-03-28 19:02:00,61.0,48.0,29.99,WSW,258,0.0,-999.0,62,-99.99,,,-99.99,,2013-03-29 02:02:00,
2013-03-28 19:11:00,61.0,48.0,29.99,WSW,258,0.0,-999.0,62,-99.99,,,-99.99,,2013-03-29 02:11:00,
2013-03-28 19:21:00,59.0,47.0,30.00,WSW,258,0.0,-999.0,65,-99.99,,,-99.99,,2013-03-29 02:21:00,
2013-03-28 19:32:00,58.0,47.0,30.01,WSW,258,0.0,-999.0,67,-99.99,,,-99.99,,2013-03-29 02:32:00,
2013-03-28 19:41:00,58.0,47.0,30.01,WSW,258,0.0,-999.0,67,-99.99,,,-99.99,,2013-03-29 02:41:00,
2013-03-28 19:52:00,58.0,47.0,30.01,WSW,258,1.0,-999.0,66,-99.99,,,-99.99,,2013-03-29 02:52:00,
2013-03-28 20:02:00,57.0,46.0,30.01,East,98,2.0,-999.0,67,-99.99,,,-99.99,,2013-03-29 03:02:00,
2013-03-28 20:11:00,57.0,46.0,30.01,East,98,2.0,-999.0,67,-99.99,,,-99.99,,2013-03-29 03:11:00,
2013-03-28 20:21:00,57.0,47.0,30.02,East,98,0.0,-999.0,68,-99.99,,,-99.99,,2013-03-29 03:21:00,
2013-03-28 20:32:00,56.0,46.0,30.02,East,98,0.0,-999.0,70,-99.99,,,-99.99,,2013-03-29 03:32:00,
2013-03-28 20:42:00,56.0,46.0,30.02,East,98,0.0,-999.0,70,-99.99,,,-99.99,,2013-03-29 03:42:00,
2013-03-28 20:52:00,56.0,46.0,30.02,East,98,0.0,-999.0,70,-99.99,,,-99.99,,2013-03-29 03:52:00,
2013-03-28 21:02:00,54.0,46.0,30.03,East,98,0.0,-999.0,73,-99.99,,,-99.99,,2013-03-29 04:02:00,
2013-03-28 21:12:00,54.0,46.0,30.03,East,98,0.0,-999.0,73,-99.99,,,-99.99,,2013-03-29 04:12:00,
2013-03-28 21:22:00,54.0,46.0,30.04,East,98,0.0,-999.0,75,-99.99,,,-99.99,,2013-03-29 04:22:00,
2013-03-28 21:32:00,53.0,46.0,30.04,East,98,0.0,-999.0,77,-99.99,,,-99.99,,2013-03-29 04:32:00,
2013-03-28 21:42:00,53.0,46.0,30.04,East,98,0.0,-999.0,77,-99.99,,,-99.99,,2013-03-29 04:42:00,
2013-03-28 21:52:00,53.0,46.0,30.05,East,98,0.0,-999.0,78,-99.99,,,-99.99,,2013-03-29 04:52:00,
2013-03-28 22:02:00,52.0,46.0,30.06,East,98,0.0,-999.0,79,-99.99,,,-99.99,,2013-03-29 05:02:00,
2013-03-28 22:12:00,52.0,46.0,30.06,East,98,0.0,-999.0,79,-99.99,,,-99.99,,2013-03-29 05:12:00,
2013-03-28 22:22:00,52.0,46.0,30.05,East,98,0.0,-999.0,80,-99.99,,,-99.99,,2013-03-29 05:22:00,
2013-03-28 22:32:00,52.0,46.0,30.06,East,98,0.0,-999.0,80,-99.99,,,-99.99,,2013-03-29 05:32:00,
2013-03-28 22:42:00,52.0,46.0,30.06,East,98,0.0,-999.0,80,-99.99,,,-99.99,,2013-03-29 05:42:00,
2013-03-28 22:52:00,51.0,46.0,30.06,East,98,0.0,-999.0,82,-99.99,,,-99.99,,2013-03-29 05:52:00,
2013-03-28 23:02:00,51.0,46.0,30.07,East,98,0.0,-999.0,82,-99.99,,,-99.99,,2013-03-29 06:02:00,
2013-03-28 23:12:00,51.0,46.0,30.07,East,98,0.0,-999.0,82,-99.99,,,-99.99,,2013-03-29 06:12:00,
2013-03-28 23:22:00,50.0,45.0,30.07,East,98,0.0,-999.0,83,-99.99,,,-99.99,,2013-03-29 06:22:00,
2013-03-28 23:32:00,50.0,45.0,30.08,East,98,0.0,-999.0,83,-99.99,,,-99.99,,2013-03-29 06:32:00,
2013-03-28 23:42:00,50.0,45.0,30.08,East,98,0.0,-999.0,83,-99.99,,,-99.99,,2013-03-29 06:42:00,
2013-03-28 23:52:00,50.0,45.0,30.08,East,98,0.0,-999.0,84,-99.99,,,-99.99,,2013-03-29 06:52:00,